{"data":{"norad_id":47280,"intl_designator":"2020-100Y","name":"ONEWEB-0134","alt_names":[],"object_type":"PAYLOAD","status":"ACTIVE","operator":null,"country":"UK","launch_date":"2020-12-18","launch_site_code":"VOSTO","launch_vehicle":null,"mission":null,"orbit_class":"UNKNOWN","rcs_meters":null,"size_class":null,"mass_kg":null,"dimensions":null,"purposes":["comms"],"wikipedia_slug":null,"has_3d_model":false,"image_url":null,"decayed_at":null,"tle_current":{"epoch":"2026-09-19T10:20:27.972384Z","epoch_age_seconds":106767,"freshness":"FRESH","line1":"1 47280U 20100Y   26262.43087931  .00000119  00000+0  29428-3 0  9995","line2":"2 47280  87.8988 331.9425 0001724  93.5572 266.5754 13.12441443277078","mean_motion":13.12441443,"eccentricity":0.0001724,"inclination_deg":87.8988,"raan_deg":331.9425,"arg_perigee_deg":93.5572,"mean_anomaly_deg":266.5754,"bstar":0.00029428,"rev_number":27707,"period_min":109.71918081986,"perigee_km":1212.4204576421,"apogee_km":1215.0381331407,"semimajor_km":7591.8662953914,"source":"CELESTRAK","updated_at":"2026-09-20T09:00:44.580483Z"}}}